TimeEDT,TemperatureF,Dew PointF,Humidity,Sea Level PressureIn,VisibilityMPH,Wind Direction,Wind SpeedMPH,Gust SpeedMPH,PrecipitationIn,Events,Conditions,WindDirDegrees,DateUTC
12:54 AM,68.0,64.9,90,30.03,5.0,Calm,Calm,-,N/A,,Mostly Cloudy,0,2008-08-19 04:54:00
1:54 AM,66.0,64.0,93,30.02,4.0,Calm,Calm,-,N/A,,Clear,0,2008-08-19 05:54:00
2:54 AM,64.0,62.1,93,30.01,4.0,Calm,Calm,-,N/A,,Clear,0,2008-08-19 06:54:00
3:54 AM,63.0,62.1,97,30.01,4.0,Calm,Calm,-,N/A,,Clear,0,2008-08-19 07:54:00
4:36 AM,60.8,60.8,100,30.10,1.8,Calm,Calm,-,N/A,,Clear,0,2008-08-19 08:36:00
4:54 AM,62.1,61.0,96,30.03,3.0,Calm,Calm,-,N/A,,Clear,0,2008-08-19 08:54:00
5:13 AM,62.6,60.8,94,30.11,1.5,Calm,Calm,-,N/A,,Clear,0,2008-08-19 09:13:00
5:20 AM,62.6,60.8,94,30.11,1.0,Calm,Calm,-,N/A,,Clear,0,2008-08-19 09:20:00
5:26 AM,62.6,60.8,94,30.11,2.0,Calm,Calm,-,N/A,,Clear,0,2008-08-19 09:26:00
5:35 AM,60.8,60.8,100,30.11,3.0,Calm,Calm,-,N/A,,Clear,0,2008-08-19 09:35:00
5:54 AM,61.0,60.1,97,30.03,4.0,Calm,Calm,-,N/A,,Clear,0,2008-08-19 09:54:00
6:28 AM,60.8,60.8,100,30.10,1.5,Calm,Calm,-,N/A,,Clear,0,2008-08-19 10:28:00
6:30 AM,60.8,59.0,94,30.10,0.8,Calm,Calm,-,N/A,,Clear,0,2008-08-19 10:30:00
6:34 AM,59.0,59.0,100,30.10,0.2,Calm,Calm,-,N/A,Fog,Fog,0,2008-08-19 10:34:00
6:45 AM,59.0,59.0,100,30.10,1.0,Calm,Calm,-,N/A,,Mist,0,2008-08-19 10:45:00
6:47 AM,59.0,59.0,100,30.10,1.5,Calm,Calm,-,N/A,,Partly Cloudy,0,2008-08-19 10:47:00
6:51 AM,59.0,59.0,100,30.10,0.8,Calm,Calm,-,N/A,,Mist,0,2008-08-19 10:51:00
6:54 AM,59.0,59.0,100,30.04,0.5,Calm,Calm,-,N/A,Fog,Fog,0,2008-08-19 10:54:00
7:04 AM,59.0,59.0,100,30.11,1.2,Calm,Calm,-,N/A,,Partly Cloudy,0,2008-08-19 11:04:00
7:11 AM,59.0,59.0,100,30.11,1.8,Calm,Calm,-,N/A,,Clear,0,2008-08-19 11:11:00
7:18 AM,59.0,59.0,100,30.11,2.5,Calm,Calm,-,N/A,,Clear,0,2008-08-19 11:18:00
7:38 AM,60.8,60.8,100,30.11,3.0,Calm,Calm,-,N/A,,Clear,0,2008-08-19 11:38:00
7:54 AM,61.0,60.1,97,30.05,2.5,Calm,Calm,-,N/A,,Clear,0,2008-08-19 11:54:00
8:00 AM,60.8,60.8,100,30.11,1.5,Calm,Calm,-,N/A,,Partly Cloudy,0,2008-08-19 12:00:00
8:03 AM,60.8,60.8,100,30.11,1.0,Calm,Calm,-,N/A,,Mist,0,2008-08-19 12:03:00
8:10 AM,62.6,60.8,94,30.11,2.0,Calm,Calm,-,N/A,,Partly Cloudy,0,2008-08-19 12:10:00
8:54 AM,66.0,63.0,90,30.05,4.0,NNW,3.5,-,N/A,,Clear,340,2008-08-19 12:54:00
9:54 AM,72.0,63.0,73,30.06,7.0,NNW,5.8,-,N/A,,Clear,330,2008-08-19 13:54:00
10:54 AM,78.1,62.1,58,30.05,9.0,NW,5.8,-,N/A,,Clear,310,2008-08-19 14:54:00
11:54 AM,82.9,59.0,44,30.04,10.0,NNW,5.8,-,N/A,,Clear,340,2008-08-19 15:54:00
12:54 PM,84.9,54.0,34,30.02,10.0,WNW,9.2,17.3,N/A,,Clear,300,2008-08-19 16:54:00
1:54 PM,87.1,48.9,27,30.00,10.0,NNW,8.1,-,N/A,,Clear,340,2008-08-19 17:54:00
2:54 PM,89.6,46.4,22,30.08,10.0,Variable,6.9,-,N/A,,Scattered Clouds,0,2008-08-19 18:54:00
3:54 PM,91.0,48.0,23,29.97,10.0,Variable,6.9,-,N/A,,Scattered Clouds,0,2008-08-19 19:54:00
4:54 PM,84.9,54.0,34,29.98,10.0,Calm,Calm,-,N/A,,Mostly Cloudy,0,2008-08-19 20:54:00
5:54 PM,84.0,57.9,41,29.98,10.0,Variable,4.6,-,N/A,,Mostly Cloudy,0,2008-08-19 21:54:00
6:54 PM,81.0,59.0,47,29.99,10.0,SE,6.9,-,N/A,,Clear,140,2008-08-19 22:54:00
7:54 PM,80.1,59.0,48,30.00,10.0,Variable,3.5,-,N/A,,Partly Cloudy,0,2008-08-19 23:54:00
8:54 PM,73.0,60.1,64,30.02,10.0,WSW,3.5,-,N/A,,Partly Cloudy,240,2008-08-20 00:54:00
9:54 PM,73.0,60.1,64,30.03,10.0,Calm,Calm,-,N/A,,Mostly Cloudy,0,2008-08-20 01:54:00
10:54 PM,72.0,61.0,68,30.04,9.0,Calm,Calm,-,N/A,,Partly Cloudy,0,2008-08-20 02:54:00
11:54 PM,69.1,63.0,81,30.05,7.0,Calm,Calm,-,N/A,,Clear,0,2008-08-20 03:54:00